| time (UTC) | temp C | wind direction | speed KPH | gust KPH | rain 1hr cm | rain 24hr cm | rain mn cm | humidity % | barometer mb |
| 20260509081505 | 4 | 303 | 0.0 | 0.0 | 0.00 | 0.00 | 0.00 | 84 | 1017.7 |
| 20260509080001 | 4 | 303 | 0.0 | 0.0 | 0.00 | 0.00 | 0.00 | 84 | 1017.5 |
| 20260509074543 | 5 | 303 | 0.0 | 0.0 | 0.00 | 0.00 | 0.00 | 83 | 1017.4 |
| 20260509073140 | 5 | 303 | 0.0 | 0.0 | 0.00 | 0.00 | 0.00 | 83 | 1017.3 |
| 20260509071523 | 5 | 303 | 0.0 | 0.0 | 0.00 | 0.00 | 0.00 | 83 | 1017.2 |
| 20260509070022 | 5 | 303 | 0.0 | 0.0 | 0.00 | 0.00 | 0.00 | 82 | 1017.0 |
| 20260509064600 | 5 | 303 | 0.0 | 0.0 | 0.00 | 0.00 | 0.00 | 81 | 1016.8 |
| 20260509063120 | 6 | 303 | 0.0 | 0.0 | 0.00 | 0.00 | 0.00 | 80 | 1016.7 |
| 20260509061535 | 6 | 303 | 0.0 | 0.0 | 0.00 | 0.00 | 0.00 | 79 | 1016.6 |
| 20260509060033 | 7 | 303 | 0.0 | 0.0 | 0.00 | 0.00 | 0.00 | 78 | 1016.6 |
| 20260509054512 | 7 | 303 | 0.0 | 0.0 | 0.00 | 0.00 | 0.00 | 76 | 1016.4 |
| 20260509053017 | 7 | 303 | 0.0 | 0.0 | 0.00 | 0.00 | 0.00 | 75 | 1016.2 |
| 20260509051551 | 8 | 303 | 0.0 | 0.0 | 0.00 | 0.00 | 0.00 | 74 | 1016.0 |
| 20260509050057 | 8 | 303 | 0.0 | 0.0 | 0.00 | 0.00 | 0.00 | 71 | 1016.0 |
| 20260509044526 | 9 | 303 | 0.0 | 0.0 | 0.00 | 0.00 | 0.00 | 68 | 1015.8 |
| 20260509043033 | 10 | 303 | 0.0 | 0.0 | 0.00 | 0.00 | 0.00 | 67 | 1015.8 |
| 20260509041600 | 10 | 303 | 0.0 | 0.0 | 0.00 | 0.00 | 0.00 | 65 | 1015.7 |
| 20260509040059 | 11 | 303 | 0.0 | 0.0 | 0.00 | 0.00 | 0.00 | 62 | 1015.5 |
| 20260509034537 | 11 | 303 | 0.0 | 0.0 | 0.00 | 0.00 | 0.00 | 60 | 1015.3 |
| 20260509033044 | 12 | 303 | 0.0 | 0.0 | 0.00 | 0.00 | 0.00 | 56 | 1015.1 |
| 20260509031516 | 13 | 303 | 0.0 | 0.0 | 0.00 | 0.00 | 0.00 | 55 | 1014.9 |
| 20260509030020 | 15 | 303 | 0.0 | 0.0 | 0.00 | 0.00 | 0.00 | 50 | 1014.6 |
| 20260509024604 | 16 | 303 | 0.0 | 0.0 | 0.00 | 0.00 | 0.00 | 44 | 1014.5 |
| 20260509023055 | 16 | 303 | 0.0 | 0.0 | 0.00 | 0.00 | 0.00 | 40 | 1014.2 |
| 20260509021543 | 17 | 303 | 0.0 | 0.0 | 0.00 | 0.00 | 0.00 | 39 | 1014.2 |
| 20260509020047 | 17 | 303 | 0.0 | 0.0 | 0.00 | 0.00 | 0.00 | 39 | 1014.1 |
| 20260509014542 | 17 | 303 | 1.6 | 0.0 | 0.00 | 0.00 | 0.00 | 38 | 1014.1 |
| 20260509013047 | 16 | 303 | 6.4 | 0.0 | 0.00 | 0.00 | 0.00 | 40 | 1014.1 |
| 20260509011545 | 16 | 305 | 6.4 | 0.0 | 0.00 | 0.00 | 0.00 | 40 | 1014.1 |
| 20260509010041 | 17 | 282 | 9.7 | 0.0 | 0.00 | 0.00 | 0.00 | 37 | 1014.1 |
| 20260509004552 | 16 | 296 | 6.4 | 0.0 | 0.00 | 0.00 | 0.00 | 39 | 1014.2 |
| 20260509003042 | 16 | 293 | 4.8 | 0.0 | 0.00 | 0.00 | 0.00 | 39 | 1014.2 |
| 20260509001522 | 17 | 294 | 6.4 | 0.0 | 0.00 | 0.00 | 0.00 | 40 | 1014.2 |
| 20260509000036 | 17 | 288 | 6.4 | 0.0 | 0.00 | 0.00 | 0.00 | 39 | 1014.2 |
| 20260508234504 | 18 | 289 | 9.7 | 0.0 | 0.00 | 0.00 | 0.00 | 40 | 1014.1 |
| 20260508233004 | 18 | 288 | 8.0 | 0.0 | 0.00 | 0.00 | 0.00 | 40 | 1014.1 |
| 20260508231604 | 17 | 306 | 9.7 | 0.0 | 0.00 | 0.00 | 0.00 | 41 | 1014.1 |
| 20260508230046 | 18 | 313 | 6.4 | 0.0 | 0.00 | 0.00 | 0.00 | 38 | 1014.0 |
| 20260508224605 | 17 | 294 | 4.8 | 0.0 | 0.00 | 0.00 | 0.00 | 38 | 1013.9 |
| 20260508223028 | 17 | 296 | 6.4 | 0.0 | 0.00 | 0.00 | 0.00 | 40 | 1014.1 |
| 20260508221533 | 18 | 292 | 9.7 | 0.0 | 0.00 | 0.00 | 0.00 | 40 | 1014.1 |
| 20260508220010 | 18 | 289 | 8.0 | 0.0 | 0.00 | 0.00 | 0.00 | 42 | 1014.2 |
| 20260508214511 | 17 | 290 | 11.3 | 0.0 | 0.00 | 0.00 | 0.00 | 44 | 1014.1 |
| 20260508213052 | 17 | 304 | 8.0 | 0.0 | 0.00 | 0.00 | 0.00 | 46 | 1014.1 |
| 20260508211554 | 17 | 290 | 8.0 | 0.0 | 0.00 | 0.00 | 0.00 | 48 | 1014.1 |
| 20260508210036 | 17 | 296 | 6.4 | 0.0 | 0.00 | 0.00 | 0.00 | 50 | 1014.2 |
| 20260508204535 | 17 | 299 | 6.4 | 0.0 | 0.00 | 0.00 | 0.00 | 51 | 1014.1 |
| 20260508203016 | 18 | 277 | 8.0 | 0.0 | 0.00 | 0.00 | 0.00 | 46 | 1014.1 |
| 20260508201516 | 17 | 281 | 8.0 | 0.0 | 0.00 | 0.00 | 0.00 | 50 | 1014.1 |
| 20260508200110 | 17 | 292 | 6.4 | 0.0 | 0.00 | 0.00 | 0.00 | 49 | 1013.9 |
| 20260508194600 | 18 | 199 | 3.2 | 0.0 | 0.00 | 0.00 | 0.00 | 38 | 1013.8 |
| 20260508193048 | 18 | 200 | 4.8 | 0.0 | 0.00 | 0.00 | 0.00 | 40 | 1013.9 |
| 20260508191538 | 18 | 225 | 1.6 | 0.0 | 0.00 | 0.00 | 0.00 | 37 | 1014.0 |
| 20260508190020 | 18 | 245 | 3.2 | 0.0 | 0.00 | 0.00 | 0.00 | 36 | 1014.1 |
| 20260508184525 | 18 | 222 | 3.2 | 0.0 | 0.00 | 0.00 | 0.00 | 36 | 1014.2 |
| 20260508183137 | 17 | 213 | 1.6 | 0.0 | 0.00 | 0.00 | 0.00 | 35 | 1014.2 |
| 20260508181612 | 17 | 223 | 3.2 | 0.0 | 0.00 | 0.00 | 0.00 | 35 | 1014.1 |
| 20260508180038 | 17 | 223 | 4.8 | 0.0 | 0.00 | 0.00 | 0.00 | 37 | 1014.1 |
| 20260508174538 | 17 | 240 | 6.4 | 0.0 | 0.00 | 0.00 | 0.00 | 40 | 1014.1 |
| 20260508173019 | 17 | 189 | 1.6 | 0.0 | 0.00 | 0.00 | 0.00 | 43 | 1014.0 |
| 20260508171529 | 17 | 198 | 3.2 | 0.0 | 0.00 | 0.00 | 0.00 | 47 | 1014.1 |
| 20260508170001 | 16 | 198 | 1.6 | 0.0 | 0.00 | 0.00 | 0.00 | 52 | 1014.0 |
| 20260508164558 | 16 | 200 | 1.6 | 0.0 | 0.00 | 0.00 | 0.00 | 54 | 1014.1 |
| 20260508163055 | 15 | 200 | 4.8 | 0.0 | 0.00 | 0.00 | 0.00 | 54 | 1014.1 |
| 20260508161552 | 15 | 288 | 1.6 | 0.0 | 0.00 | 0.00 | 0.00 | 64 | 1014.1 |
| 20260508160056 | 15 | 289 | 1.6 | 0.0 | 0.00 | 0.00 | 0.00 | 63 | 1014.2 |
| 20260508154551 | 15 | 289 | 0.0 | 0.0 | 0.00 | 0.00 | 0.00 | 64 | 1014.2 |
| 20260508153046 | 13 | 288 | 0.0 | 0.0 | 0.00 | 0.00 | 0.00 | 71 | 1014.2 |
| 20260508151546 | 12 | 288 | 0.0 | 0.0 | 0.00 | 0.00 | 0.00 | 79 | 1014.2 |
| 20260508150029 | 11 | 288 | 0.0 | 0.0 | 0.00 | 0.00 | 0.00 | 84 | 1014.2 |
| 20260508144536 | 10 | 288 | 0.0 | 0.0 | 0.00 | 0.00 | 0.00 | 88 | 1014.3 |
| 20260508143016 | 10 | 288 | 0.0 | 0.0 | 0.00 | 0.00 | 0.00 | 91 | 1014.2 |
| 20260508141509 | 8 | 288 | 0.0 | 0.0 | 0.00 | 0.00 | 0.00 | 92 | 1014.2 |
| 20260508140056 | 6 | 288 | 0.0 | 0.0 | 0.00 | 0.00 | 0.00 | 91 | 1014.3 |
| 20260508134546 | 5 | 288 | 0.0 | 0.0 | 0.00 | 0.00 | 0.00 | 91 | 1014.2 |
| 20260508133026 | 5 | 288 | 0.0 | 0.0 | 0.00 | 0.00 | 0.00 | 92 | 1014.0 |
| 20260508131527 | 4 | 288 | 0.0 | 0.0 | 0.00 | 0.00 | 0.00 | 92 | 1014.1 |
| 20260508130010 | 3 | 288 | 0.0 | 0.0 | 0.00 | 0.00 | 0.00 | 91 | 1013.9 |
| 20260508124509 | 3 | 288 | 0.0 | 0.0 | 0.00 | 0.00 | 0.00 | 91 | 1013.8 |
| 20260508123049 | 4 | 288 | 0.0 | 0.0 | 0.00 | 0.00 | 0.00 | 91 | 1013.8 |
| 20260508121549 | 4 | 288 | 0.0 | 0.0 | 0.00 | 0.00 | 0.00 | 90 | 1013.8 |
| 20260508120029 | 4 | 288 | 0.0 | 0.0 | 0.00 | 0.00 | 0.00 | 91 | 1013.7 |
| 20260508114533 | 4 | 288 | 0.0 | 0.0 | 0.00 | 0.00 | 0.00 | 90 | 1013.9 |
| 20260508113010 | 4 | 288 | 0.0 | 0.0 | 0.00 | 0.00 | 0.00 | 90 | 1013.7 |
| 20260508111508 | 4 | 288 | 0.0 | 0.0 | 0.00 | 0.00 | 0.00 | 90 | 1013.6 |
| 20260508110048 | 5 | 288 | 0.0 | 0.0 | 0.00 | 0.00 | 0.00 | 90 | 1013.6 |
| 20260508104555 | 5 | 288 | 0.0 | 0.0 | 0.00 | 0.00 | 0.00 | 89 | 1013.6 |
| 20260508103029 | 5 | 288 | 0.0 | 0.0 | 0.00 | 0.00 | 0.00 | 89 | 1013.6 |
| 20260508101535 | 5 | 288 | 0.0 | 0.0 | 0.00 | 0.00 | 0.00 | 89 | 1013.5 |
| 20260508100009 | 5 | 288 | 0.0 | 0.0 | 0.00 | 0.00 | 0.00 | 89 | 1013.4 |
| 20260508094507 | 5 | 288 | 0.0 | 0.0 | 0.00 | 0.00 | 0.00 | 89 | 1013.4 |
| 20260508093048 | 5 | 288 | 0.0 | 0.0 | 0.00 | 0.00 | 0.00 | 88 | 1013.5 |
| 20260508091547 | 6 | 288 | 0.0 | 0.0 | 0.00 | 0.00 | 0.00 | 88 | 1013.4 |
| 20260508090032 | 6 | 288 | 0.0 | 0.0 | 0.00 | 0.00 | 0.00 | 88 | 1013.3 |
| 20260508084523 | 6 | 288 | 0.0 | 0.0 | 0.00 | 0.00 | 0.00 | 87 | 1013.3 |
| 20260508083006 | 6 | 288 | 0.0 | 0.0 | 0.00 | 0.00 | 0.00 | 87 | 1013.2 |